Regional Weather Roundup
Issued by NWS

Home | Current Version | Previous Version | Graphics & Text | Print | Product List | Glossary On
Versions: 1 2 3 4 5 6 7 8 9 10 11 12 13 14 15 16 17 18 19 20 21 22 23 24 25 26 27 28 29 30 31 32 33 34 35 36 37 38 39 40 41 42 43 44 45 46 47 48 49 50
000
ASUS43 KBIS 251601
RWRND

NORTH DAKOTA REGIONAL WEATHER ROUNDUP
NATIONAL WEATHER SERVICE BISMARCK ND
1100 AM CDT SAT APR 25 2015

NOTE: "FAIR" INDICATES FEW OR NO CLOUDS BELOW 12,000 FEET WITH NO
SIGNIFICANT WEATHER AND/OR OBSTRUCTIONS TO VISIBILITY.


NDZ001>003-009>011-017-251700-
NORTHWEST NORTH DAKOTA

CITY           SKY/WX    TMP DP  RH WIND       PRES   REMARKS
WILLISTON      LGT RAIN  51  42  71 SE15G23   29.73S
MINOT          CLOUDY    46  40  79 E15       29.81S
MINOT AFB      CLOUDY    46  45  99 SE17      29.81S
$$

NDZ018>021-031>035-040>046-251700-
SOUTHWEST NORTH DAKOTA

CITY           SKY/WX    TMP DP  RH WIND       PRES   REMARKS
BISMARCK       CLOUDY    47  42  83 SE15      29.81R
DICKINSON      FOG       43  42  97 SE17      29.72R VSB 1
GARRISON         N/A     46  42  86 SE14      29.79R
HETTINGER ARPT FOG       44  42  93 E14       29.74R VSB 1
$$

NDZ004>008-012>016-024-026-027-054-251700-
NORTHEAST NORTH DAKOTA

CITY           SKY/WX    TMP DP  RH WIND       PRES   REMARKS
GRAND FORKS    CLOUDY    48  34  58 SE8       29.91R
GRND FRKS AFB  CLOUDY    47  33  59 SE8       29.91R
DEVILS LAKE    CLOUDY    48  36  61 SE15      29.86R
$$

NDZ022-023-025-028>030-036>039-047>053-251700-
SOUTHEAST NORTH DAKOTA

CITY           SKY/WX    TMP DP  RH WIND       PRES   REMARKS
FARGO          CLOUDY    47  37  68 E10       29.88R
JAMESTOWN      CLOUDY    43  40  89 E13       29.85R
$$




USA.gov is the U.S. government's official web portal to all federal, state and local government web resources and services.